Time,TemperatureF,DewpointF,PressureIn,WindDirection,WindDirectionDegrees,WindSpeedMPH,WindSpeedGustMPH,Humidity,HourlyPrecipIn,Conditions,Clouds,dailyrainin,SoftwareType,DateUTC
2013-06-02 00:00:00,69.9,66.8,30.03,West,268,1.0,2.0,90,0.00,,,0.00,Wunderground v.1.15,2013-06-02 04:00:00,
2013-06-02 00:05:00,69.8,66.7,30.03,West,266,1.0,3.0,90,0.00,,,0.00,Wunderground v.1.15,2013-06-02 04:05:00,
2013-06-02 00:10:00,69.7,66.6,30.03,SW,220,2.0,4.0,90,0.00,,,0.00,Wunderground v.1.15,2013-06-02 04:10:00,
2013-06-02 00:15:00,69.6,66.5,30.02,ESE,112,3.0,4.0,90,0.00,,,0.00,Wunderground v.1.15,2013-06-02 04:15:00,
2013-06-02 00:20:00,69.5,66.4,30.02,ESE,106,3.0,4.0,90,0.00,,,0.00,Wunderground v.1.15,2013-06-02 04:20:00,
2013-06-02 00:30:00,69.4,66.7,30.02,ESE,123,3.0,3.0,91,0.00,,,0.00,Wunderground v.1.15,2013-06-02 04:30:00,
2013-06-02 00:35:00,69.4,66.7,30.02,ESE,123,2.0,3.0,91,0.00,,,0.00,Wunderground v.1.15,2013-06-02 04:35:00,
2013-06-02 00:40:00,69.2,66.5,30.02,ESE,123,1.0,1.0,91,0.00,,,0.00,Wunderground v.1.15,2013-06-02 04:40:00,
2013-06-02 00:45:00,69.2,66.5,30.02,ESE,123,1.0,1.0,91,0.00,,,0.00,Wunderground v.1.15,2013-06-02 04:45:00,
2013-06-02 00:50:00,69.0,66.3,30.01,ESE,123,1.0,2.0,91,0.00,,,0.00,Wunderground v.1.15,2013-06-02 04:50:00,
2013-06-02 00:55:00,68.8,66.1,30.01,ESE,123,1.0,3.0,91,0.00,,,0.00,Wunderground v.1.15,2013-06-02 04:55:00,
2013-06-02 01:05:00,68.8,66.4,30.01,ESE,123,2.0,6.0,92,0.00,,,0.00,Wunderground v.1.15,2013-06-02 05:05:00,
2013-06-02 01:10:00,68.7,66.3,30.01,ESE,123,3.0,6.0,92,0.00,,,0.00,Wunderground v.1.15,2013-06-02 05:10:00,
2013-06-02 01:15:00,68.7,66.3,30.00,ESE,123,3.0,6.0,92,0.00,,,0.00,Wunderground v.1.15,2013-06-02 05:15:00,
2013-06-02 01:20:00,68.7,66.3,30.00,ESE,123,3.0,3.0,92,0.00,,,0.00,Wunderground v.1.15,2013-06-02 05:20:00,
2013-06-02 01:25:00,68.6,66.2,30.00,ESE,123,2.0,6.0,92,0.00,,,0.00,Wunderground v.1.15,2013-06-02 05:25:00,
2013-06-02 01:30:00,68.5,66.1,29.99,ESE,123,1.0,1.0,92,0.00,,,0.00,Wunderground v.1.15,2013-06-02 05:30:00,
2013-06-02 01:35:00,68.5,66.1,29.99,ESE,123,2.0,2.0,92,0.00,,,0.00,Wunderground v.1.15,2013-06-02 05:35:00,
2013-06-02 01:40:00,68.4,66.0,29.99,ESE,123,2.0,6.0,92,0.00,,,0.00,Wunderground v.1.15,2013-06-02 05:40:00,
2013-06-02 01:45:00,68.4,66.0,29.98,ESE,123,2.0,6.0,92,0.00,,,0.00,Wunderground v.1.15,2013-06-02 05:45:00,
2013-06-02 01:50:00,68.4,66.0,29.98,SE,126,4.0,4.0,92,0.00,,,0.00,Wunderground v.1.15,2013-06-02 05:50:00,
2013-06-02 01:55:00,68.5,66.1,29.98,SE,142,4.0,6.0,92,0.00,,,0.00,Wunderground v.1.15,2013-06-02 05:55:00,
2013-06-02 02:05:00,68.4,66.0,29.98,SE,141,4.0,6.0,92,0.00,,,0.00,Wunderground v.1.15,2013-06-02 06:05:00,
2013-06-02 02:10:00,68.4,66.0,29.98,ESE,119,4.0,4.0,92,0.00,,,0.00,Wunderground v.1.15,2013-06-02 06:10:00,
2013-06-02 02:15:00,68.5,66.1,29.98,SE,141,4.0,6.0,92,0.00,,,0.00,Wunderground v.1.15,2013-06-02 06:15:00,
2013-06-02 02:20:00,68.6,66.2,29.97,SE,139,4.0,4.0,92,0.00,,,0.00,Wunderground v.1.15,2013-06-02 06:20:00,
2013-06-02 02:25:00,68.6,66.2,29.97,SE,139,3.0,6.0,92,0.00,,,0.00,Wunderground v.1.15,2013-06-02 06:25:00,
2013-06-02 02:30:00,68.6,66.2,29.97,SE,139,3.0,3.0,92,0.00,,,0.00,Wunderground v.1.15,2013-06-02 06:30:00,
2013-06-02 02:40:00,68.9,66.2,29.97,SE,140,2.0,6.0,91,0.00,,,0.00,Wunderground v.1.15,2013-06-02 06:40:00,
2013-06-02 02:45:00,68.9,66.2,29.96,SE,140,1.0,6.0,91,0.00,,,0.00,Wunderground v.1.15,2013-06-02 06:45:00,
2013-06-02 02:50:00,68.9,66.2,29.97,SE,140,1.0,6.0,91,0.00,,,0.00,Wunderground v.1.15,2013-06-02 06:50:00,
2013-06-02 02:55:00,69.0,66.3,29.97,SE,140,2.0,6.0,91,0.00,,,0.00,Wunderground v.1.15,2013-06-02 06:55:00,
2013-06-02 03:00:00,68.8,66.1,29.97,SE,140,3.0,3.0,91,0.00,,,0.00,Wunderground v.1.15,2013-06-02 07:00:00,
2013-06-02 03:10:00,68.6,66.2,29.96,SE,140,1.0,1.0,92,0.00,,,0.00,Wunderground v.1.15,2013-06-02 07:10:00,
2013-06-02 03:15:00,68.3,65.6,29.95,SE,140,0.0,6.0,91,0.00,,,0.00,Wunderground v.1.15,2013-06-02 07:15:00,
2013-06-02 03:20:00,68.1,65.7,29.95,SE,140,0.0,6.0,92,0.00,,,0.00,Wunderground v.1.15,2013-06-02 07:20:00,
2013-06-02 03:25:00,68.1,65.7,29.94,SE,140,0.0,6.0,92,0.00,,,0.00,Wunderground v.1.15,2013-06-02 07:25:00,
2013-06-02 03:30:00,68.1,65.7,29.94,SE,140,0.0,6.0,92,0.00,,,0.00,Wunderground v.1.15,2013-06-02 07:30:00,
2013-06-02 03:35:00,68.0,65.6,29.94,SE,140,0.0,6.0,92,0.00,,,0.00,Wunderground v.1.15,2013-06-02 07:35:00,
2013-06-02 03:45:00,68.1,65.7,29.93,SE,140,1.0,6.0,92,0.00,,,0.00,Wunderground v.1.15,2013-06-02 07:45:00,
2013-06-02 03:50:00,68.1,65.7,29.93,SE,141,2.0,6.0,92,0.00,,,0.00,Wunderground v.1.15,2013-06-02 07:50:00,
2013-06-02 03:55:00,68.1,65.7,29.93,South,184,4.0,6.0,92,0.00,,,0.00,Wunderground v.1.15,2013-06-02 07:55:00,
2013-06-02 04:00:00,68.2,65.5,29.93,SSE,162,4.0,4.0,91,0.00,,,0.00,Wunderground v.1.15,2013-06-02 08:00:00,
2013-06-02 04:05:00,68.3,65.6,29.93,South,187,4.0,9.0,91,0.00,,,0.00,Wunderground v.1.15,2013-06-02 08:05:00,
2013-06-02 04:15:00,68.8,65.7,29.93,SSE,166,5.0,6.0,90,0.00,,,0.00,Wunderground v.1.15,2013-06-02 08:15:00,
2013-06-02 04:20:00,69.1,65.7,29.92,South,175,5.0,5.0,89,0.00,,,0.00,Wunderground v.1.15,2013-06-02 08:20:00,
2013-06-02 04:25:00,69.3,65.9,29.92,South,182,5.0,6.0,89,0.00,,,0.00,Wunderground v.1.15,2013-06-02 08:25:00,
2013-06-02 04:30:00,69.7,66.0,29.93,South,176,6.0,8.0,88,0.00,,,0.00,Wunderground v.1.15,2013-06-02 08:30:00,
2013-06-02 04:35:00,70.1,66.0,29.92,South,170,6.0,8.0,87,0.00,,,0.00,Wunderground v.1.15,2013-06-02 08:35:00,
2013-06-02 04:40:00,70.4,66.3,29.92,SSW,197,6.0,7.0,87,0.00,,,0.00,Wunderground v.1.15,2013-06-02 08:40:00,
2013-06-02 04:45:00,70.7,66.0,29.92,SSW,202,7.0,7.0,85,0.00,,,0.00,Wunderground v.1.15,2013-06-02 08:45:00,
2013-06-02 04:50:00,70.7,66.0,29.92,South,183,6.0,8.0,85,0.00,,,0.00,Wunderground v.1.15,2013-06-02 08:50:00,
2013-06-02 04:55:00,70.7,66.0,29.92,SSW,199,6.0,8.0,85,0.00,,,0.00,Wunderground v.1.15,2013-06-02 08:55:00,
2013-06-02 05:00:00,71.1,66.4,29.92,SSW,206,7.0,9.0,85,0.00,,,0.00,Wunderground v.1.15,2013-06-02 09:00:00,
2013-06-02 05:05:00,71.7,66.6,29.92,SW,220,9.0,14.0,84,0.00,,,0.00,Wunderground v.1.15,2013-06-02 09:05:00,
2013-06-02 05:10:00,72.2,66.7,29.93,SSW,211,10.0,10.0,83,0.00,,,0.00,Wunderground v.1.15,2013-06-02 09:10:00,
2013-06-02 05:20:00,72.1,66.6,29.94,SSW,207,8.0,8.0,83,1.84,,,0.03,Wunderground v.1.15,2013-06-02 09:20:00,
2013-06-02 05:25:00,71.4,66.7,29.94,WSW,240,8.0,8.0,85,0.32,,,0.06,Wunderground v.1.15,2013-06-02 09:25:00,
2013-06-02 05:30:00,70.9,66.8,29.95,West,262,9.0,9.0,87,2.74,,,0.17,Wunderground v.1.15,2013-06-02 09:30:00,
2013-06-02 05:35:00,70.2,66.8,29.98,SW,234,9.0,24.0,89,4.40,,,0.33,Wunderground v.1.15,2013-06-02 09:35:00,
2013-06-02 05:40:00,68.1,64.7,29.99,West,277,12.0,12.0,89,0.19,,,0.39,Wunderground v.1.15,2013-06-02 09:40:00,
2013-06-02 05:50:00,67.0,64.3,29.98,SW,232,12.0,12.0,91,0.07,,,0.41,Wunderground v.1.15,2013-06-02 09:50:00,
2013-06-02 05:55:00,66.9,64.2,29.97,West,261,11.0,16.0,91,0.04,,,0.41,Wunderground v.1.15,2013-06-02 09:55:00,
2013-06-02 06:00:00,66.9,64.2,29.97,WSW,251,10.0,10.0,91,0.00,,,0.42,Wunderground v.1.15,2013-06-02 10:00:00,
2013-06-02 06:10:00,66.6,64.2,29.98,SW,227,8.0,9.0,92,0.00,,,0.42,Wunderground v.1.15,2013-06-02 10:10:00,
2013-06-02 06:15:00,66.6,64.2,29.97,WSW,248,7.0,9.0,92,0.00,,,0.42,Wunderground v.1.15,2013-06-02 10:15:00,
2013-06-02 06:25:00,66.3,63.9,29.96,SW,225,6.0,6.0,92,0.00,,,0.42,Wunderground v.1.15,2013-06-02 10:25:00,
2013-06-02 06:30:00,66.2,63.8,29.97,SW,218,6.0,6.0,92,0.00,,,0.42,Wunderground v.1.15,2013-06-02 10:30:00,
2013-06-02 06:35:00,66.1,63.7,29.96,SW,219,5.0,6.0,92,0.00,,,0.42,Wunderground v.1.15,2013-06-02 10:35:00,
2013-06-02 06:40:00,66.1,63.7,29.96,SW,223,5.0,5.0,92,0.00,,,0.42,Wunderground v.1.15,2013-06-02 10:40:00,
2013-06-02 06:45:00,66.1,64.0,29.97,SW,222,5.0,6.0,93,0.00,,,0.42,Wunderground v.1.15,2013-06-02 10:45:00,
2013-06-02 06:55:00,66.2,64.1,29.97,SSW,204,6.0,8.0,93,0.00,,,0.42,Wunderground v.1.15,2013-06-02 10:55:00,
2013-06-02 07:00:00,66.3,64.2,29.96,SSW,196,6.0,6.0,93,0.00,,,0.42,Wunderground v.1.15,2013-06-02 11:00:00,
2013-06-02 07:05:00,66.4,64.3,29.96,SSW,209,6.0,31.0,93,0.00,,,0.42,Wunderground v.1.15,2013-06-02 11:05:00,
2013-06-02 07:10:00,66.5,64.4,29.96,SW,214,6.0,6.0,93,0.00,,,0.42,Wunderground v.1.15,2013-06-02 11:10:00,
2013-06-02 07:15:00,66.6,64.5,29.96,SW,216,7.0,12.0,93,0.00,,,0.42,Wunderground v.1.15,2013-06-02 11:15:00,
2013-06-02 07:20:00,66.8,64.7,29.96,South,184,8.0,31.0,93,0.00,,,0.42,Wunderground v.1.15,2013-06-02 11:20:00,
2013-06-02 07:30:00,67.1,64.7,29.96,SSW,207,7.0,31.0,92,0.00,,,0.43,Wunderground v.1.15,2013-06-02 11:30:00,
2013-06-02 07:35:00,67.2,64.8,29.96,SSW,208,6.0,31.0,92,0.00,,,0.43,Wunderground v.1.15,2013-06-02 11:35:00,
2013-06-02 07:40:00,67.3,64.9,29.96,SSW,207,7.0,31.0,92,0.00,,,0.43,Wunderground v.1.15,2013-06-02 11:40:00,
2013-06-02 07:45:00,67.3,64.3,29.96,SSW,207,8.0,31.0,90,0.00,,,0.43,Wunderground v.1.15,2013-06-02 11:45:00,
2013-06-02 07:50:00,67.3,63.9,29.96,SSW,210,9.0,9.0,89,0.00,,,0.43,Wunderground v.1.15,2013-06-02 11:50:00,
2013-06-02 08:00:00,67.4,63.7,29.95,SW,217,8.0,31.0,88,0.00,,,0.43,Wunderground v.1.15,2013-06-02 12:00:00,
2013-06-02 08:05:00,67.4,63.7,29.96,SSW,207,8.0,31.0,88,0.00,,,0.43,Wunderground v.1.15,2013-06-02 12:05:00,
2013-06-02 08:10:00,67.4,63.4,29.95,SSW,202,9.0,9.0,87,0.00,,,0.43,Wunderground v.1.15,2013-06-02 12:10:00,
2013-06-02 08:15:00,67.4,63.1,29.95,SSW,204,9.0,31.0,86,0.00,,,0.43,Wunderground v.1.15,2013-06-02 12:15:00,
2013-06-02 08:20:00,67.4,63.4,29.96,SSW,205,8.0,31.0,87,0.00,,,0.43,Wunderground v.1.15,2013-06-02 12:20:00,
2013-06-02 08:25:00,67.5,63.5,29.96,SW,217,8.0,31.0,87,0.00,,,0.43,Wunderground v.1.15,2013-06-02 12:25:00,
2013-06-02 08:30:00,67.6,63.3,29.97,SW,218,9.0,9.0,86,0.00,,,0.43,Wunderground v.1.15,2013-06-02 12:30:00,
2013-06-02 08:35:00,67.5,63.5,29.97,SSW,211,9.0,31.0,87,0.00,,,0.43,Wunderground v.1.15,2013-06-02 12:35:00,
2013-06-02 08:40:00,67.5,63.5,29.97,South,181,9.0,9.0,87,0.00,,,0.43,Wunderground v.1.15,2013-06-02 12:40:00,
2013-06-02 08:45:00,67.4,63.7,29.97,South,182,8.0,31.0,88,0.00,,,0.43,Wunderground v.1.15,2013-06-02 12:45:00,
2013-06-02 08:55:00,67.4,63.7,29.96,South,191,7.0,31.0,88,0.00,,,0.43,Wunderground v.1.15,2013-06-02 12:55:00,
2013-06-02 09:00:00,67.4,63.7,29.96,SW,223,6.0,31.0,88,0.00,,,0.43,Wunderground v.1.15,2013-06-02 13:00:00,
2013-06-02 09:05:00,67.4,63.7,29.95,South,183,7.0,31.0,88,0.00,,,0.43,Wunderground v.1.15,2013-06-02 13:05:00,
2013-06-02 09:10:00,67.3,63.6,29.95,South,189,8.0,31.0,88,0.00,,,0.43,Wunderground v.1.15,2013-06-02 13:10:00,
2013-06-02 09:15:00,67.3,63.6,29.95,SSW,195,7.0,31.0,88,0.00,,,0.43,Wunderground v.1.15,2013-06-02 13:15:00,
2013-06-02 09:20:00,67.4,63.7,29.95,South,174,6.0,6.0,88,0.00,,,0.43,Wunderground v.1.15,2013-06-02 13:20:00,
2013-06-02 09:25:00,67.6,63.6,29.95,South,177,7.0,8.0,87,0.00,,,0.43,Wunderground v.1.15,2013-06-02 13:25:00,
2013-06-02 09:35:00,68.3,63.9,29.94,SW,220,7.0,31.0,86,0.00,,,0.43,Wunderground v.1.15,2013-06-02 13:35:00,
2013-06-02 09:40:00,68.5,63.8,29.94,SW,215,8.0,8.0,85,0.00,,,0.43,Wunderground v.1.15,2013-06-02 13:40:00,
2013-06-02 09:45:00,68.7,64.0,29.94,SSW,207,8.0,31.0,85,0.00,,,0.43,Wunderground v.1.15,2013-06-02 13:45:00,
2013-06-02 09:50:00,68.8,64.1,29.94,SSW,202,6.0,6.0,85,0.00,,,0.43,Wunderground v.1.15,2013-06-02 13:50:00,
2013-06-02 09:55:00,69.0,64.3,29.94,SW,221,5.0,31.0,85,0.00,,,0.43,Wunderground v.1.15,2013-06-02 13:55:00,
2013-06-02 10:00:00,69.2,64.2,29.95,SSW,209,5.0,31.0,84,0.00,,,0.43,Wunderground v.1.15,2013-06-02 14:00:00,
2013-06-02 10:10:00,69.6,64.2,29.95,SSW,211,7.0,31.0,83,0.00,,,0.43,Wunderground v.1.15,2013-06-02 14:10:00,
2013-06-02 10:15:00,69.8,64.4,29.96,SSW,210,7.0,31.0,83,0.00,,,0.43,Wunderground v.1.15,2013-06-02 14:15:00,
2013-06-02 10:20:00,69.9,64.5,29.96,SW,215,7.0,31.0,83,0.00,,,0.43,Wunderground v.1.15,2013-06-02 14:20:00,
2013-06-02 10:25:00,69.9,64.8,29.96,SSW,193,7.0,31.0,84,0.00,,,0.43,Wunderground v.1.15,2013-06-02 14:25:00,
2013-06-02 10:30:00,69.9,64.5,29.97,SSW,211,8.0,31.0,83,0.00,,,0.44,Wunderground v.1.15,2013-06-02 14:30:00,
2013-06-02 10:40:00,70.4,65.0,29.96,SSW,212,8.0,31.0,83,0.00,,,0.44,Wunderground v.1.15,2013-06-02 14:40:00,
2013-06-02 10:45:00,70.9,65.1,29.96,SSW,194,8.0,31.0,82,0.00,,,0.44,Wunderground v.1.15,2013-06-02 14:45:00,
2013-06-02 10:50:00,71.2,65.4,29.95,SW,224,9.0,31.0,82,0.00,,,0.44,Wunderground v.1.15,2013-06-02 14:50:00,
2013-06-02 10:55:00,71.3,64.8,29.96,SW,217,9.0,31.0,80,0.00,,,0.44,Wunderground v.1.15,2013-06-02 14:55:00,
2013-06-02 11:00:00,71.5,65.4,29.96,SW,224,9.0,31.0,81,0.00,,,0.44,Wunderground v.1.15,2013-06-02 15:00:00,
2013-06-02 11:05:00,71.7,65.6,29.96,SSW,205,9.0,31.0,81,0.00,,,0.44,Wunderground v.1.15,2013-06-02 15:05:00,
2013-06-02 11:15:00,72.5,66.0,29.96,SSW,211,8.0,31.0,80,0.00,,,0.44,Wunderground v.1.15,2013-06-02 15:15:00,
2013-06-02 11:20:00,72.7,65.8,29.96,SW,221,10.0,10.0,79,0.00,,,0.44,Wunderground v.1.15,2013-06-02 15:20:00,
2013-06-02 11:25:00,72.9,66.4,29.96,SW,223,9.0,31.0,80,0.00,,,0.44,Wunderground v.1.15,2013-06-02 15:25:00,
2013-06-02 11:30:00,73.4,66.9,29.96,SW,229,8.0,31.0,80,0.00,,,0.44,Wunderground v.1.15,2013-06-02 15:30:00,
2013-06-02 11:35:00,74.5,67.6,29.96,WSW,248,9.0,31.0,79,0.00,,,0.44,Wunderground v.1.15,2013-06-02 15:35:00,
2013-06-02 11:45:00,74.4,67.5,29.96,SW,220,9.0,31.0,79,0.00,,,0.44,Wunderground v.1.15,2013-06-02 15:45:00,
2013-06-02 11:50:00,74.9,67.6,29.95,SW,223,9.0,9.0,78,0.00,,,0.44,Wunderground v.1.15,2013-06-02 15:50:00,
2013-06-02 11:55:00,75.1,67.0,29.95,SSW,211,9.0,10.0,76,0.00,,,0.44,Wunderground v.1.15,2013-06-02 15:55:00,
2013-06-02 12:00:00,75.1,67.0,29.96,SW,221,10.0,10.0,76,0.00,,,0.44,Wunderground v.1.15,2013-06-02 16:00:00,
2013-06-02 12:10:00,75.0,66.9,29.96,SW,224,10.0,10.0,76,0.00,,,0.44,Wunderground v.1.15,2013-06-02 16:10:00,
2013-06-02 12:15:00,74.9,66.4,29.97,SW,229,10.0,10.0,75,0.00,,,0.44,Wunderground v.1.15,2013-06-02 16:15:00,
2013-06-02 12:25:00,74.8,66.7,29.97,SW,225,8.0,9.0,76,0.00,,,0.44,Wunderground v.1.15,2013-06-02 16:25:00,
2013-06-02 12:30:00,74.7,66.6,29.96,SW,234,9.0,9.0,76,0.00,,,0.44,Wunderground v.1.15,2013-06-02 16:30:00,
2013-06-02 12:35:00,74.7,66.6,29.97,SSW,195,7.0,9.0,76,0.00,,,0.44,Wunderground v.1.15,2013-06-02 16:35:00,
2013-06-02 12:40:00,74.6,66.1,29.96,SW,236,7.0,10.0,75,0.00,,,0.44,Wunderground v.1.15,2013-06-02 16:40:00,
2013-06-02 12:45:00,74.5,66.1,29.96,SSW,209,7.0,10.0,75,0.00,,,0.44,Wunderground v.1.15,2013-06-02 16:45:00,
2013-06-02 12:50:00,74.5,66.1,29.96,SW,214,7.0,9.0,75,0.00,,,0.44,Wunderground v.1.15,2013-06-02 16:50:00,
2013-06-02 12:55:00,74.7,66.2,29.96,SSW,202,8.0,9.0,75,0.00,,,0.44,Wunderground v.1.15,2013-06-02 16:55:00,
2013-06-02 13:00:00,75.3,66.8,29.96,SSW,205,8.0,11.0,75,0.00,,,0.44,Wunderground v.1.15,2013-06-02 17:00:00,
2013-06-02 13:05:00,75.8,66.9,29.96,SSW,209,9.0,21.0,74,0.00,,,0.44,Wunderground v.1.15,2013-06-02 17:05:00,
2013-06-02 13:10:00,76.0,66.7,29.96,SW,226,9.0,9.0,73,0.00,,,0.44,Wunderground v.1.15,2013-06-02 17:10:00,
2013-06-02 13:20:00,77.0,66.0,29.95,SW,229,9.0,21.0,69,0.00,,,0.44,Wunderground v.1.15,2013-06-02 17:20:00,
2013-06-02 13:25:00,77.6,66.2,29.95,SW,220,10.0,21.0,68,0.00,,,0.44,Wunderground v.1.15,2013-06-02 17:25:00,
2013-06-02 13:30:00,78.2,66.3,29.95,SW,217,9.0,21.0,67,0.00,,,0.44,Wunderground v.1.15,2013-06-02 17:30:00,
2013-06-02 13:35:00,78.1,65.4,29.95,SSW,212,11.0,21.0,65,0.00,,,0.44,Wunderground v.1.15,2013-06-02 17:35:00,
2013-06-02 13:40:00,78.4,65.7,29.94,SW,217,12.0,12.0,65,0.00,,,0.44,Wunderground v.1.15,2013-06-02 17:40:00,
2013-06-02 13:45:00,78.7,65.9,29.94,SW,224,12.0,21.0,65,0.00,,,0.44,Wunderground v.1.15,2013-06-02 17:45:00,
2013-06-02 13:55:00,78.0,64.4,29.94,WSW,253,11.0,21.0,63,0.00,,,0.44,Wunderground v.1.15,2013-06-02 17:55:00,
2013-06-02 14:00:00,78.0,64.8,29.94,WSW,255,11.0,11.0,64,0.00,,,0.44,Wunderground v.1.15,2013-06-02 18:00:00,
2013-06-02 14:05:00,77.9,63.8,29.94,WSW,256,10.0,12.0,62,0.00,,,0.44,Wunderground v.1.15,2013-06-02 18:05:00,
2013-06-02 14:10:00,77.7,63.6,29.94,West,274,9.0,21.0,62,0.00,,,0.44,Wunderground v.1.15,2013-06-02 18:10:00,
2013-06-02 14:15:00,77.5,63.5,29.94,West,271,9.0,21.0,62,0.00,,,0.44,Wunderground v.1.15,2013-06-02 18:15:00,
2013-06-02 14:25:00,78.8,64.2,29.94,SW,230,9.0,21.0,61,0.00,,,0.44,Wunderground v.1.15,2013-06-02 18:25:00,
2013-06-02 14:30:00,79.1,63.5,29.94,WSW,242,9.0,21.0,59,0.00,,,0.44,Wunderground v.1.15,2013-06-02 18:30:00,
2013-06-02 14:35:00,79.2,63.6,29.94,SW,227,10.0,21.0,59,0.00,,,0.44,Wunderground v.1.15,2013-06-02 18:35:00,
2013-06-02 14:40:00,79.4,62.3,29.94,WSW,248,11.0,21.0,56,0.00,,,0.44,Wunderground v.1.15,2013-06-02 18:40:00,
2013-06-02 14:45:00,78.6,63.6,29.94,NW,304,12.0,21.0,60,0.00,,,0.44,Wunderground v.1.15,2013-06-02 18:45:00,
2013-06-02 14:50:00,77.8,66.0,29.94,WNW,303,9.0,9.0,67,0.00,,,0.44,Wunderground v.1.15,2013-06-02 18:50:00,
2013-06-02 15:00:00,77.4,66.0,29.94,NW,311,6.0,21.0,68,0.00,,,0.44,Wunderground v.1.15,2013-06-02 19:00:00,
2013-06-02 15:05:00,76.1,64.8,29.95,WNW,287,8.0,21.0,68,0.00,,,0.44,Wunderground v.1.15,2013-06-02 19:05:00,
2013-06-02 15:10:00,75.3,65.2,29.95,WNW,287,9.0,9.0,71,0.00,,,0.44,Wunderground v.1.15,2013-06-02 19:10:00,
2013-06-02 15:15:00,75.0,65.4,29.96,WNW,293,7.0,21.0,72,0.00,,,0.44,Wunderground v.1.15,2013-06-02 19:15:00,
2013-06-02 15:20:00,74.7,64.7,29.96,WNW,284,5.0,21.0,71,0.00,,,0.44,Wunderground v.1.15,2013-06-02 19:20:00,
2013-06-02 15:30:00,75.4,64.9,29.96,WSW,254,4.0,21.0,70,0.00,,,0.44,Wunderground v.1.15,2013-06-02 19:30:00,
2013-06-02 15:35:00,75.4,64.9,29.95,WSW,242,6.0,21.0,70,0.00,,,0.44,Wunderground v.1.15,2013-06-02 19:35:00,
2013-06-02 15:40:00,76.0,65.1,29.95,WSW,252,7.0,7.0,69,0.00,,,0.44,Wunderground v.1.15,2013-06-02 19:40:00,
2013-06-02 15:45:00,76.7,64.9,29.95,West,264,6.0,9.0,67,0.00,,,0.44,Wunderground v.1.15,2013-06-02 19:45:00,
2013-06-02 15:50:00,76.2,64.4,29.96,WNW,296,7.0,7.0,67,0.00,,,0.44,Wunderground v.1.15,2013-06-02 19:50:00,
2013-06-02 15:55:00,75.9,64.2,29.96,WNW,298,7.0,21.0,67,0.00,,,0.44,Wunderground v.1.15,2013-06-02 19:55:00,
2013-06-02 16:05:00,75.2,63.1,29.95,West,277,8.0,21.0,66,0.00,,,0.44,Wunderground v.1.15,2013-06-02 20:05:00,
2013-06-02 16:10:00,75.2,63.9,29.95,WNW,298,8.0,8.0,68,0.00,,,0.44,Wunderground v.1.15,2013-06-02 20:10:00,
2013-06-02 16:15:00,75.6,63.9,29.96,WNW,298,7.0,21.0,67,0.00,,,0.44,Wunderground v.1.15,2013-06-02 20:15:00,
2013-06-02 16:20:00,75.8,63.2,29.96,WNW,299,8.0,21.0,65,0.00,,,0.44,Wunderground v.1.15,2013-06-02 20:20:00,
2013-06-02 16:25:00,75.9,62.8,29.96,NW,304,10.0,21.0,64,0.00,,,0.44,Wunderground v.1.15,2013-06-02 20:25:00,
2013-06-02 16:30:00,75.9,63.3,29.96,NW,314,9.0,21.0,65,0.00,,,0.44,Wunderground v.1.15,2013-06-02 20:30:00,
2013-06-02 16:35:00,75.8,62.3,29.96,West,279,9.0,21.0,63,0.00,,,0.44,Wunderground v.1.15,2013-06-02 20:35:00,
2013-06-02 16:40:00,75.8,62.8,29.96,WNW,300,10.0,21.0,64,0.00,,,0.44,Wunderground v.1.15,2013-06-02 20:40:00,
2013-06-02 16:45:00,75.7,62.2,29.96,WNW,290,9.0,21.0,63,0.00,,,0.44,Wunderground v.1.15,2013-06-02 20:45:00,
2013-06-02 16:50:00,75.7,62.7,29.96,West,271,8.0,21.0,64,0.00,,,0.44,Wunderground v.1.15,2013-06-02 20:50:00,
2013-06-02 16:55:00,75.8,62.8,29.96,SW,236,8.0,21.0,64,0.00,,,0.44,Wunderground v.1.15,2013-06-02 20:55:00,
2013-06-02 17:05:00,75.3,62.3,29.97,West,265,8.0,21.0,64,0.00,,,0.44,Wunderground v.1.15,2013-06-02 21:05:00,
2013-06-02 17:10:00,75.0,61.5,29.97,NW,312,9.0,21.0,63,0.00,,,0.44,Wunderground v.1.15,2013-06-02 21:10:00,
2013-06-02 17:15:00,74.8,62.2,29.97,SW,229,9.0,21.0,65,0.00,,,0.44,Wunderground v.1.15,2013-06-02 21:15:00,
2013-06-02 17:20:00,75.2,62.6,29.96,West,269,8.0,21.0,65,0.00,,,0.44,Wunderground v.1.15,2013-06-02 21:20:00,
2013-06-02 17:25:00,75.1,60.7,29.96,WSW,255,10.0,21.0,61,0.00,,,0.44,Wunderground v.1.15,2013-06-02 21:25:00,
2013-06-02 17:30:00,74.9,60.5,29.96,West,265,11.0,11.0,61,0.00,,,0.44,Wunderground v.1.15,2013-06-02 21:30:00,
2013-06-02 17:40:00,74.9,61.0,29.97,WSW,243,10.0,10.0,62,0.00,,,0.44,Wunderground v.1.15,2013-06-02 21:40:00,
2013-06-02 17:45:00,75.0,60.6,29.97,SW,219,10.0,21.0,61,0.00,,,0.44,Wunderground v.1.15,2013-06-02 21:45:00,
2013-06-02 17:50:00,74.9,60.5,29.97,SW,236,10.0,10.0,61,0.00,,,0.44,Wunderground v.1.15,2013-06-02 21:50:00,
2013-06-02 17:55:00,74.7,59.9,29.97,WSW,256,12.0,16.0,60,0.00,,,0.44,Wunderground v.1.15,2013-06-02 21:55:00,
2013-06-02 18:00:00,74.4,58.2,29.97,WSW,249,14.0,15.0,57,0.00,,,0.44,Wunderground v.1.15,2013-06-02 22:00:00,
2013-06-02 18:10:00,74.2,58.5,29.98,WSW,240,13.0,13.0,58,0.00,,,0.44,Wunderground v.1.15,2013-06-02 22:10:00,
2013-06-02 18:15:00,74.2,58.9,29.98,West,277,12.0,13.0,59,0.00,,,0.44,Wunderground v.1.15,2013-06-02 22:15:00,
2013-06-02 18:20:00,74.2,58.9,29.98,NW,320,10.0,10.0,59,0.00,,,0.44,Wunderground v.1.15,2013-06-02 22:20:00,
2013-06-02 18:25:00,74.1,59.3,29.98,WSW,248,9.0,10.0,60,0.00,,,0.44,Wunderground v.1.15,2013-06-02 22:25:00,
2013-06-02 18:30:00,73.9,58.2,29.98,WSW,253,10.0,12.0,58,0.00,,,0.44,Wunderground v.1.15,2013-06-02 22:30:00,
2013-06-02 18:35:00,73.7,57.0,29.98,WNW,288,11.0,12.0,56,0.00,,,0.44,Wunderground v.1.15,2013-06-02 22:35:00,
2013-06-02 18:45:00,73.6,56.9,29.99,WSW,244,10.0,13.0,56,0.00,,,0.44,Wunderground v.1.15,2013-06-02 22:45:00,
2013-06-02 18:50:00,73.5,57.3,29.99,WSW,245,10.0,10.0,57,0.00,,,0.44,Wunderground v.1.15,2013-06-02 22:50:00,
2013-06-02 18:55:00,73.3,58.1,29.99,West,273,9.0,10.0,59,0.00,,,0.44,Wunderground v.1.15,2013-06-02 22:55:00,
2013-06-02 19:00:00,73.1,57.4,29.99,SW,229,8.0,13.0,58,0.00,,,0.44,Wunderground v.1.15,2013-06-02 23:00:00,
2013-06-02 19:05:00,72.8,57.6,29.99,WSW,250,8.0,21.0,59,0.00,,,0.44,Wunderground v.1.15,2013-06-02 23:05:00,
2013-06-02 19:15:00,72.2,58.0,30.00,WNW,292,8.0,21.0,61,0.00,,,0.44,Wunderground v.1.15,2013-06-02 23:15:00,
2013-06-02 19:20:00,71.8,57.6,29.99,West,281,9.0,21.0,61,0.00,,,0.44,Wunderground v.1.15,2013-06-02 23:20:00,
2013-06-02 19:25:00,71.6,57.9,29.99,WNW,294,9.0,21.0,62,0.00,,,0.44,Wunderground v.1.15,2013-06-02 23:25:00,
2013-06-02 19:30:00,71.3,57.6,29.99,NW,311,9.0,21.0,62,0.00,,,0.44,Wunderground v.1.15,2013-06-02 23:30:00,
2013-06-02 19:35:00,71.0,57.8,29.99,West,280,10.0,21.0,63,0.00,,,0.44,Wunderground v.1.15,2013-06-02 23:35:00,
2013-06-02 19:40:00,70.7,57.5,30.00,WNW,288,11.0,11.0,63,0.00,,,0.44,Wunderground v.1.15,2013-06-02 23:40:00,
2013-06-02 19:50:00,70.2,57.0,30.00,WNW,302,10.0,21.0,63,0.00,,,0.44,Wunderground v.1.15,2013-06-02 23:50:00,
2013-06-02 19:55:00,70.0,56.8,30.00,West,275,10.0,21.0,63,0.00,,,0.44,Wunderground v.1.15,2013-06-02 23:55:00,
2013-06-02 20:00:00,69.9,57.2,30.01,WNW,287,10.0,21.0,64,0.00,,,0.44,Wunderground v.1.15,2013-06-03 00:00:00,
2013-06-02 20:05:00,69.7,57.0,30.01,West,266,10.0,21.0,64,0.00,,,0.44,Wunderground v.1.15,2013-06-03 00:05:00,
2013-06-02 20:10:00,69.5,57.2,30.01,West,269,9.0,9.0,65,0.00,,,0.44,Wunderground v.1.15,2013-06-03 00:10:00,
2013-06-02 20:15:00,69.2,56.9,30.01,WSW,254,8.0,21.0,65,0.00,,,0.44,Wunderground v.1.15,2013-06-03 00:15:00,
2013-06-02 20:20:00,68.8,57.4,30.01,West,277,7.0,7.0,67,0.00,,,0.44,Wunderground v.1.15,2013-06-03 00:20:00,
2013-06-02 20:25:00,68.4,57.0,30.02,WSW,256,6.0,21.0,67,0.00,,,0.44,Wunderground v.1.15,2013-06-03 00:25:00,
2013-06-02 20:30:00,68.2,57.2,30.02,West,275,6.0,21.0,68,0.00,,,0.44,Wunderground v.1.15,2013-06-03 00:30:00,
2013-06-02 20:35:00,68.0,57.4,30.02,WNW,284,7.0,21.0,69,0.00,,,0.44,Wunderground v.1.15,2013-06-03 00:35:00,
2013-06-02 20:40:00,67.9,57.4,30.02,WSW,253,7.0,21.0,69,0.00,,,0.44,Wunderground v.1.15,2013-06-03 00:40:00,
2013-06-02 20:50:00,67.8,56.9,30.02,WSW,240,8.0,8.0,68,0.00,,,0.44,Wunderground v.1.15,2013-06-03 00:50:00,
2013-06-02 20:55:00,67.7,56.8,30.02,West,279,8.0,21.0,68,0.00,,,0.44,Wunderground v.1.15,2013-06-03 00:55:00,
2013-06-02 21:00:00,67.7,56.8,30.02,WNW,294,7.0,7.0,68,0.00,,,0.44,Wunderground v.1.15,2013-06-03 01:00:00,
2013-06-02 21:05:00,67.5,57.0,30.02,West,265,7.0,11.0,69,0.00,,,0.44,Wunderground v.1.15,2013-06-03 01:05:00,
2013-06-02 21:10:00,67.3,56.8,30.02,WNW,288,6.0,6.0,69,0.00,,,0.44,Wunderground v.1.15,2013-06-03 01:10:00,
2013-06-02 21:15:00,67.2,57.1,30.03,WSW,254,6.0,21.0,70,0.00,,,0.44,Wunderground v.1.15,2013-06-03 01:15:00,
2013-06-02 21:25:00,66.8,57.1,30.03,SW,217,5.0,6.0,71,0.00,,,0.44,Wunderground v.1.15,2013-06-03 01:25:00,
2013-06-02 21:30:00,66.6,56.9,30.03,WSW,245,5.0,5.0,71,0.00,,,0.44,Wunderground v.1.15,2013-06-03 01:30:00,
2013-06-02 21:35:00,66.4,56.7,30.03,SW,227,6.0,6.0,71,0.00,,,0.44,Wunderground v.1.15,2013-06-03 01:35:00,
2013-06-02 21:40:00,66.2,56.9,30.03,WSW,242,5.0,21.0,72,0.00,,,0.44,Wunderground v.1.15,2013-06-03 01:40:00,
2013-06-02 21:45:00,65.9,57.0,30.04,WSW,242,5.0,21.0,73,0.00,,,0.44,Wunderground v.1.15,2013-06-03 01:45:00,
2013-06-02 21:55:00,65.9,56.6,30.04,West,263,4.0,21.0,72,0.00,,,0.44,Wunderground v.1.15,2013-06-03 01:55:00,
2013-06-02 22:00:00,65.8,56.9,30.05,West,262,3.0,21.0,73,0.00,,,0.44,Wunderground v.1.15,2013-06-03 02:00:00,
2013-06-02 22:05:00,65.8,56.9,30.05,West,264,3.0,21.0,73,0.00,,,0.44,Wunderground v.1.15,2013-06-03 02:05:00,
2013-06-02 22:10:00,65.7,56.8,30.05,WNW,292,4.0,21.0,73,0.00,,,0.44,Wunderground v.1.15,2013-06-03 02:10:00,
2013-06-02 22:15:00,65.7,56.8,30.05,WNW,296,3.0,21.0,73,0.00,,,0.44,Wunderground v.1.15,2013-06-03 02:15:00,
2013-06-02 22:20:00,65.6,56.7,30.04,WNW,284,3.0,21.0,73,0.00,,,0.44,Wunderground v.1.15,2013-06-03 02:20:00,
2013-06-02 22:30:00,65.4,56.9,30.05,WNW,289,3.0,21.0,74,0.00,,,0.44,Wunderground v.1.15,2013-06-03 02:30:00,
2013-06-02 22:35:00,65.2,56.7,30.05,WNW,285,4.0,21.0,74,0.00,,,0.44,Wunderground v.1.15,2013-06-03 02:35:00,
2013-06-02 22:40:00,65.0,56.9,30.05,WNW,301,4.0,21.0,75,0.00,,,0.44,Wunderground v.1.15,2013-06-03 02:40:00,
2013-06-02 22:45:00,65.0,56.9,30.05,West,277,5.0,21.0,75,0.00,,,0.44,Wunderground v.1.15,2013-06-03 02:45:00,
2013-06-02 22:50:00,64.9,57.2,30.05,WNW,296,5.0,5.0,76,0.00,,,0.44,Wunderground v.1.15,2013-06-03 02:50:00,
2013-06-02 23:00:00,64.5,57.1,30.06,WNW,285,5.0,21.0,77,0.00,,,0.44,Wunderground v.1.15,2013-06-03 03:00:00,
2013-06-02 23:05:00,64.3,57.3,30.06,West,273,6.0,21.0,78,0.00,,,0.44,Wunderground v.1.15,2013-06-03 03:05:00,
2013-06-02 23:10:00,64.2,57.5,30.06,NW,305,7.0,21.0,79,0.00,,,0.44,Wunderground v.1.15,2013-06-03 03:10:00,
2013-06-02 23:15:00,64.1,57.8,30.06,NW,313,6.0,21.0,80,0.00,,,0.44,Wunderground v.1.15,2013-06-03 03:15:00,
2013-06-02 23:20:00,63.6,57.3,30.06,NW,324,7.0,21.0,80,0.00,,,0.44,Wunderground v.1.15,2013-06-03 03:20:00,
2013-06-02 23:25:00,63.0,56.7,30.06,NW,307,9.0,21.0,80,0.00,,,0.44,Wunderground v.1.15,2013-06-03 03:25:00,
2013-06-02 23:35:00,62.3,56.0,30.07,WNW,300,10.0,10.0,80,0.00,,,0.44,Wunderground v.1.15,2013-06-03 03:35:00,
2013-06-02 23:40:00,62.1,56.2,30.07,WNW,296,9.0,9.0,81,0.00,,,0.44,Wunderground v.1.15,2013-06-03 03:40:00,
2013-06-02 23:45:00,62.0,55.8,30.08,NW,305,8.0,21.0,80,0.00,,,0.44,Wunderground v.1.15,2013-06-03 03:45:00,
2013-06-02 23:50:00,62.0,55.8,30.09,WNW,291,7.0,7.0,80,0.00,,,0.44,Wunderground v.1.15,2013-06-03 03:50:00,
2013-06-02 23:55:00,61.9,55.7,30.09,NW,324,5.0,21.0,80,0.00,,,0.44,Wunderground v.1.15,2013-06-03 03:55:00,